www.pogodaiklimat.ru

Погода и климат >> Архив погоды >> Гана >> Аким Ода


ПОГОДА в Аким Ода

  • Прогноз погоды в Аким Ода
  • Монитор погоды в Аким Ода

АРХИВ ПОГОДЫ в Аким Ода

Время (UTC), дата Ветер
(напр.,м/с)
 
Видим.   Явления Облачность Т
(С)
Тd
(С)
f
(%)
Тe
(С)
Тes
(С)
Комфортность P
(гПа)
Po
(гПа)
Тmin
(С)
Tmax
(С)
R
(мм)
R24
(мм)
S
(см)
09 12.03 З 1 16 км 9/9 400 м
[Sc]
+27.2 +25.5 90 +40 +41 очень
душно
1013.2 997.2
12 12.03 З 2 3300 м 8/6 480 м
[Cu med, cong Ac trans]
+33.2 +24.3 60 +46 +52 опасность
перегрева
1010.3 994.6
15 12.03 ЮВ 1 18 км 4/3 540 м
[Cu hum Ci sp]
+37.2 +22.6 43 +46 +55 опасность
перегрева
1007.2 991.8
18 12.03 ЮЗ 1 16 км 4/0
[Ci sp]
+34.5 +22.1 49 +43 +43 опасность
перегрева
1007.3 991.8 +37.3
21 12.03 ЮВ 1 14 км 3/0
[Ci sp]
+28.4 +25.9 86 +42 +42 опасность
перегрева
1011.0 995.1
06 13.03 С 1 15 км 6/0
[Ac trans Ci sp]
+25.6 +24.8 95 +36 +36 очень
душно
1010.4 994.3 +25.0
12 13.03 ЮЗ 1 16 км 8/6 500 м
[Cu med, cong Ci sp]
+34.2 +23.8 55 +46 +55 опасность
перегрева
1010.6 995.0
15 13.03 СЗ 1 16 км 3/3 500 м
[Cu med, cong Ci sp]
+36.3 +21.7 43 +44 +54 опасность
перегрева
1006.5 991.1
18 13.03 ЮЗ 1 14 км 4/0 300 м
[Ci sp]
+34.8 +22.5 49 +44 +44 опасность
перегрева
1006.3 990.8 +36.7
21 13.03 СЗ 1 12 км 1/0
[Ci sp]
+28.5 +25.7 85 +42 +42 опасность
перегрева
1009.3 993.4
03 14.03 СВ 1 12 км 6/4 360 м
[Sc Ci sp]
+26.9 +25.2 90 +39 +39 очень
душно
1010.2 994.2
06 14.03 штиль 0 12 км 5/3 360 м
[Sc Ac trans Ci sp]
+26.0 +24.9 94 +37 +37 очень
душно
1009.2 993.2 +25.2
09 14.03 ЮЗ 1 15 км 9/6 400 м
[Cu Sc Ac trans]
+29.0 +25.9 83 +43 +46 опасность
перегрева
1011.2 995.3
12 14.03 ЮЗ 1 15 км 8/6 480 м
[Cu med, cong Ac trans]
+33.9 +24.7 59 +47 +55 опасность
перегрева
1008.7 993.1
15 14.03 ЮЗ 2 18 км 9/3 400 м
[Cb cap Ac trans Cs]
+34.2 +24.6 57 +47 +52 опасность
перегрева
1005.1 989.6
18 14.03 ЮВ 2 18 км 9/0
[Ac trans Cs]
+29.4 +23.1 69 +39 +39 очень
душно
1007.8 992.0 +36.7
21 14.03 ЮВ 1 16 км 9/0
[Ac trans Cs]
+27.5 +24.1 82 +38 +38 очень
душно
1010.9 994.9
03 15.03 штиль 0 14 км 8/3 360 м
[Sc Ac trans]
+25.5 +24.0 91 +35 +35 очень
душно
1008.8 992.8
06 15.03 штиль 0 12 км 9/3 360 м
[Sc Ac trans]
+25.0 +23.6 92 +34 +34 очень
душно
1005.9 989.9 +24.5
09 15.03 З 1 16 км 9/0
[Ac trans]
+27.6 +24.6 84 +39 +45 очень
душно
1011.1 995.1
12 15.03 СЗ 2 18 км 9/8 420 м
[Cu Sc Ac trans]
+32.8 +25.6 66 +48 +51 опасность
перегрева
1008.9 993.2
15 15.03 ЮЗ 1 18 км 9/8 400 м
[Cu Sc Ac trans]
+34.0 +25.8 62 +49 +51 опасность
перегрева
1006.6 991.0
18 15.03 СЗ 1 14 км 9/8 400 м
[Sc Ac trans]
+31.4 +23.8 64 +43 +43 опасность
перегрева
1008.5 992.8 +34.1
21 15.03 Ю 1 12 км 9/6 360 м
[Sc Ac trans]
+27.6 +22.9 76 +37 +37 очень
душно
1010.8 994.8
09 16.03 ЮЗ 1 14 км 9/0
[Ac trans Cs]
+28.0 +23.5 77 +38 +47 очень
душно
1012.0 996.0
15 16.03 ЮВ 2 14 км 9/8 450 м
[Cu Sc Ci sp]
+35.8 +24.4 52 +48 +50 опасность
перегрева
1006.8 991.3
03 18.03 штиль 0 12 км 8/3 360 м
[Sc Ac trans]
+24.5 +23.5 94 +33 +33 очень
душно
1008.8 992.7
09 18.03 З 1 15 км 8/0
[Ac trans Ci sp]
+28.3 +23.1 73 +38 +46 очень
душно
1011.8 995.9
12 18.03 Ю 2 2500 м 9/0
[Ac trans]
+32.4 +22.6 56 +42 +52 опасность
перегрева
1007.9 992.2
15 18.03 СЗ 1 15 км 8/1 480 м
[Cu hum Ac trans]
+35.8 +22.9 47 +45 +52 опасность
перегрева
1006.4 990.9
18 18.03 ЮЗ 2 15 км 6/3 400 м
[Cb cap Ac trans]
+32.4 +24.9 65 +46 +46 опасность
перегрева
1007.4 991.7 +36.2
21 18.03 ЮЗ 1 14 км 8/0 300 м
[Ac trans Cs]
+28.5 +24.1 77 +40 +40 очень
душно
1009.8 993.9

 

Местоположение метеостанции Аким Ода (Гана): широта 5.93 долгота -0.98 высота над уровнем моря 140 м.

В архиве по умолчанию представлена погода в Аким Ода за последнюю неделю. Архивные данные за месяц целиком и за предыдущие месяцы, начиная с января 2011 года, Вы можете получить, выбрав интересующий диапазон дат из раскрывающегося списка и нажав кнопку "Ввод!".


*Определитесь, кто Вы:
робот инопланетянин человек

Внимание! Время в таблицах - всемирное. Для получения местного времени необходимо прибавить поправку, которая равна 1 ч.

Смотрите также архив погоды в соседних городах и на ближайших метеорологических станциях:

Погода в Солтпонде (Гана) (82 км)
Погода в Кофоридуа (Гана) (82 км)
Погода в Абетифи (Гана) (86 км)
Погода в Аккра (Гана) (97 км)
Погода в Кумаси (Гана) (111 км)
Погода в Тема (Гана) (114 км)
Погода в Акюсе (Гана) (123 км)
Погода Такоради (Гана) (146 км)
Погода в Сефви Беквай (Гана) (152 км)
Погода в Хо (Гана) (177 км)

Пояснения к столбцам:

Ветер - указаны скорость ветра в м/с - средняя за 10 мин, порывы в срок и между сроками (в фигурных скобках) и направление, откуда дует ветер: С - северный, СВ - северо-восточный, В - восточный, ЮВ - юго-восточный, Ю - южный, ЮЗ - юго-западный, З - западный, СЗ - северо-западный.
Видимость - горизонтальная дальность видимости в метрах или километрах. При видимости от 1 до 10 км при отсутствии осадков обычно наблюдается дымка, при ухудшении видимости до 1 км и менее - туман. В сухую погоду видимость может ухудшаться дымом, пылью или мглою.
Явления - указаны атмосферные явления, наблюдавшиеся в срок или в последний час перед сроком; фигурными скобками обозначены явления, наблюдавшиеся между сроками (за 1-3 часа до срока); квадратными скобками обозначены град или гололедные отложения с указанием их диаметра в мм.
Облачность - указаны через наклонную черту общая и нижняя облачность в баллах и высота нижней границы облаков в метрах; квадратными скобками обозначены формы облаков: Ci - перистые, Cs - перисто-слоистые, Cc - перисто-кучевые, Ac - высококучевые, As - высокослоистые, Sc - слоисто-кучевые, Ns - слоисто-дождевые, Cu - кучевые, Cb - кучево-дождевые. Подробнее классификацию облаков см. в Атласе облаков (PDF).
T - Температура воздуха - температура, измеренная на высоте 2 м над землей.
Td - Температура точки росы - температура, при понижении до которой содержащийся в воздухе водяной пар достигнет насыщения.
f - Относительная влажность воздуха - влажноcть воздуха, измеренная на высоте 2 м над землей.
Te - Эффективная температура - температура, которую ощущает одетый по сезону человек в тени. Характеристика душности погоды. При расчете учитывается влияние влажности воздуха и скорости ветра на теплоощущения человека.
Tes - Эффективная температура на солнце - температура, которую ощущает человек, с поправкой на солнечный нагрев. Характеристика знойности погоды. Зависит от высоты солнца над горизонтом, облачности и скорости ветра. Ночью, в пасмурную погоду, а также при ветре 12 м/с и более поправка равна нулю.
P - Атмосферное давление - приведенное к уровню моря атмосферное давление.
Po - Атмосферное давление - измеренное на уровне метеостанции атмосферное давление.
Tmin - Минимальная температура - минимум температуры воздуха на высоте 2 м над землей.
Tmax - Максимальная температура - максимум температуры воздуха на высоте 2 м над землей.
R - Количество осадков - Количество выпавших осадков за период времени, мм. При наведении курсора мыши на число - период времени, за который выпало указанное количество осадков.
R24 - Количество осадков - Количество выпавших осадков за 24 часа, мм.
S - Снежный покров - Высота снежного покрова, см. При наведении курсора мыши на число - состояние снежного покрова и степень покрытия местности в баллах.